When you browse on this site, cookies collect data to enhance your experience and personalize the content and advertising you see.
Visit our Privacy Policy to learn more. By continuing to use the site, you agree to this use of cookies and data.
  • In Italy
  • List of Countries
  • For 7 days
  • Water Temperature
  • Satellite Maps
  • Weather Map
  • Weather Widgets
  • user-avatar
    Login

    Hourly Weather Centnerovka

    Today, 22 February, Friday

    Time Temperature Precipitation Wind Pressure Humidity
    00:00 -13°C° 0 mm 5 mps 745 mmHg 79%
    01:00 -14°C° 0 mm 5 mps 745 mmHg 78%
    02:00 -14°C° 0 mm 5 mps 746 mmHg 78%
    03:00 -14°C° 0 mm 5 mps 746 mmHg 78%
    04:00 -14°C° 0 mm 5 mps 746 mmHg 79%
    05:00 -15°C° 0 mm 6 mps 747 mmHg 80%
    06:00 -15°C° 0 mm 6 mps 747 mmHg 79%
    07:00 -15°C° 0 mm 6 mps 748 mmHg 79%
    08:00 -15°C° 0 mm 6 mps 748 mmHg 79%
    09:00 -14°C° 0 mm 7 mps 749 mmHg 77%
    10:00 -14°C° 0 mm 7 mps 749 mmHg 75%
    11:00 -13°C° 0 mm 8 mps 750 mmHg 73%
    12:00 -13°C° 0 mm 8 mps 750 mmHg 72%
    13:00 -12°C° 0 mm 8 mps 751 mmHg 72%
    14:00 -12°C° 0 mm 8 mps 751 mmHg 71%
    15:00 -12°C° 0 mm 7 mps 752 mmHg 72%
    16:00 -11°C° 0 mm 6 mps 752 mmHg 74%
    17:00 -12°C° 0 mm 6 mps 753 mmHg 75%
    18:00 -12°C° 0 mm 5 mps 754 mmHg 77%
    19:00 -12°C° 0 mm 5 mps 754 mmHg 78%
    20:00 -13°C° 0 mm 5 mps 755 mmHg 80%
    21:00 -13°C° 0 mm 5 mps 755 mmHg 81%
    22:00 -14°C° 0 mm 5 mps 756 mmHg 83%
    23:00 -14°C° 0 mm 5 mps 756 mmHg 85%

    Tomorrow, 23 February, Saturday

    Time Temperature Precipitation Wind Pressure Humidity
    00:00 -14°C° 0 mm 4 mps 757 mmHg 86%
    01:00 -14°C° 0 mm 4 mps 757 mmHg 88%
    02:00 -15°C° 0 mm 4 mps 758 mmHg 89%
    03:00 -15°C° 0 mm 4 mps 758 mmHg 90%
    04:00 -14°C° 0 mm 3 mps 759 mmHg 92%
    05:00 -15°C° 0 mm 3 mps 759 mmHg 93%
    06:00 -15°C° 0 mm 3 mps 759 mmHg 92%
    07:00 -15°C° 0 mm 3 mps 759 mmHg 92%
    08:00 -14°C° 0 mm 2 mps 760 mmHg 92%
    09:00 -12°C° 0 mm 2 mps 760 mmHg 87%
    10:00 -9°C° 0 mm 2 mps 760 mmHg 83%
    11:00 -7°C° 0 mm 2 mps 760 mmHg 78%
    12:00 -7°C° 0 mm 2 mps 759 mmHg 76%
    13:00 -7°C° 0 mm 3 mps 759 mmHg 75%
    14:00 -6°C° 0 mm 3 mps 759 mmHg 73%
    15:00 -6°C° 0 mm 3 mps 758 mmHg 73%
    16:00 -8°C° 0 mm 4 mps 758 mmHg 73%
    17:00 -8°C° 0 mm 4 mps 757 mmHg 73%
    18:00 -8°C° 0.1 mm 4 mps 757 mmHg 76%
    19:00 -8°C° 0.1 mm 5 mps 756 mmHg 79%
    20:00 -8°C° 0.1 mm 5 mps 756 mmHg 83%
    21:00 -8°C° 0.1 mm 5 mps 756 mmHg 85%
    22:00 -8°C° 0.1 mm 5 mps 755 mmHg 87%
    23:00 -8°C° 0.1 mm 5 mps 755 mmHg 89%

    Day after tomorrow, 24 February, Sunday

    Time Temperature Precipitation Wind Pressure Humidity
    00:00 -7°C° 0 mm 5 mps 754 mmHg 90%
    01:00 -7°C° 0 mm 5 mps 754 mmHg 91%
    02:00 -7°C° 0 mm 5 mps 754 mmHg 91%
    03:00 -5°C° 0 mm 4 mps 753 mmHg 92%
    04:00 -5°C° 0 mm 4 mps 753 mmHg 92%
    05:00 -4°C° 0 mm 4 mps 753 mmHg 93%
    06:00 -4°C° 0 mm 4 mps 753 mmHg 93%
    07:00 -4°C° 0 mm 4 mps 753 mmHg 93%
    08:00 -4°C° 0 mm 4 mps 753 mmHg 94%
    09:00 -3°C° 0 mm 4 mps 753 mmHg 94%
    10:00 -3°C° 0 mm 4 mps 753 mmHg 95%
    11:00 -2°C° 0 mm 4 mps 753 mmHg 95%
    12:00 -2°C° 0 mm 4 mps 753 mmHg 96%
    13:00 -1°C° 0 mm 3 mps 753 mmHg 97%
    14:00 0°C° 0 mm 3 mps 753 mmHg 98%
    15:00 0°C° 0 mm 3 mps 753 mmHg 97%
    16:00 -1°C° 0 mm 3 mps 753 mmHg 96%
    17:00 -1°C° 0 mm 3 mps 753 mmHg 95%
    18:00 -1°C° 0 mm 3 mps 753 mmHg 95%
    19:00 -1°C° 0 mm 3 mps 753 mmHg 96%
    20:00 -1°C° 0 mm 3 mps 753 mmHg 96%
    21:00 -2°C° 0 mm 4 mps 752 mmHg 96%
    22:00 -2°C° 0 mm 4 mps 752 mmHg 95%
    23:00 -1°C° 0 mm 4 mps 752 mmHg 95%

    25 February, Monday

    Time Temperature Precipitation Wind Pressure Humidity
    00:00 -1°C° 0 mm 4 mps 752 mmHg 94%
    01:00 -1°C° 0 mm 4 mps 751 mmHg 94%
    02:00 -1°C° 0 mm 4 mps 751 mmHg 93%
    03:00 -1°C° 0 mm 4 mps 751 mmHg 94%
    04:00 -1°C° 0 mm 4 mps 750 mmHg 94%
    05:00 -1°C° 0 mm 4 mps 750 mmHg 95%
    06:00 -1°C° 0 mm 4 mps 750 mmHg 95%
    07:00 -1°C° 0 mm 4 mps 750 mmHg 94%
    08:00 -1°C° 0 mm 5 mps 750 mmHg 94%
    09:00 -1°C° 0 mm 5 mps 750 mmHg 94%
    10:00 -1°C° 0 mm 5 mps 750 mmHg 93%
    11:00 -1°C° 0 mm 5 mps 750 mmHg 92%
    12:00 -1°C° 0 mm 5 mps 750 mmHg 91%
    13:00 -1°C° 0 mm 5 mps 750 mmHg 90%
    14:00 0°C° 0 mm 5 mps 750 mmHg 89%
    15:00 0°C° 0 mm 5 mps 749 mmHg 87%
    16:00 -1°C° 0 mm 5 mps 749 mmHg 84%
    17:00 -1°C° 0 mm 5 mps 749 mmHg 82%
    18:00 -1°C° 0 mm 5 mps 748 mmHg 83%
    19:00 -1°C° 0 mm 5 mps 748 mmHg 83%
    20:00 -1°C° 0 mm 5 mps 748 mmHg 84%
    21:00 -1°C° 0 mm 5 mps 747 mmHg 86%
    22:00 -1°C° 0 mm 5 mps 747 mmHg 87%
    23:00 -2°C° 0 mm 6 mps 746 mmHg 89%

    26 February, Tuesday

    Time Temperature Precipitation Wind Pressure Humidity
    00:00 -2°C° 0.1 mm 6 mps 746 mmHg 89%
    01:00 -1°C° 0.1 mm 5 mps 745 mmHg 89%
    02:00 -1°C° 0.1 mm 5 mps 745 mmHg 90%
    03:00 -1°C° 0 mm 5 mps 745 mmHg 90%
    04:00 -1°C° 0 mm 5 mps 744 mmHg 90%
    05:00 -1°C° 0 mm 4 mps 744 mmHg 90%
    06:00 -2°C° 0 mm 4 mps 744 mmHg 91%
    07:00 -2°C° 0 mm 4 mps 744 mmHg 91%
    08:00 -3°C° 0 mm 4 mps 744 mmHg 91%
    09:00 -2°C° 0 mm 4 mps 743 mmHg 90%
    10:00 -2°C° 0 mm 4 mps 743 mmHg 88%
    11:00 -1°C° 0 mm 5 mps 743 mmHg 86%
    12:00 -1°C° 0.1 mm 4 mps 742 mmHg 87%
    13:00 -1°C° 0.1 mm 4 mps 741 mmHg 87%
    14:00 -1°C° 0.1 mm 4 mps 740 mmHg 88%
    15:00 -1°C° 0.8 mm 4 mps 739 mmHg 90%
    16:00 -1°C° 0.8 mm 4 mps 739 mmHg 91%
    17:00 -1°C° 0.8 mm 4 mps 738 mmHg 93%
    18:00 -2°C° 0.2 mm 6 mps 738 mmHg 90%
    19:00 -1°C° 0.2 mm 7 mps 738 mmHg 88%
    20:00 -1°C° 0.2 mm 8 mps 738 mmHg 85%
    21:00 -2°C° 0.1 mm 7 mps 738 mmHg 86%
    22:00 -2°C° 0.1 mm 7 mps 739 mmHg 86%
    23:00 -2°C° 0.1 mm 6 mps 739 mmHg 86%

    27 February, Wednesday

    Time Temperature Precipitation Wind Pressure Humidity
    00:00 -2°C° 0.1 mm 6 mps 740 mmHg 87%
    01:00 -2°C° 0.1 mm 5 mps 740 mmHg 87%
    02:00 -2°C° 0.1 mm 5 mps 741 mmHg 87%
    03:00 -2°C° 0 mm 5 mps 742 mmHg 87%
    04:00 -2°C° 0 mm 5 mps 742 mmHg 87%
    05:00 -2°C° 0 mm 5 mps 742 mmHg 86%
    06:00 -2°C° 0 mm 5 mps 743 mmHg 87%
    07:00 -2°C° 0 mm 5 mps 743 mmHg 87%
    08:00 -2°C° 0 mm 5 mps 744 mmHg 87%
    09:00 -2°C° 0.1 mm 5 mps 744 mmHg 87%
    10:00 -2°C° 0.1 mm 5 mps 744 mmHg 86%
    11:00 -2°C° 0.1 mm 5 mps 744 mmHg 85%
    12:00 -1°C° 0 mm 4 mps 744 mmHg 85%
    13:00 -1°C° 0 mm 4 mps 744 mmHg 85%
    14:00 -1°C° 0 mm 4 mps 744 mmHg 86%
    15:00 -1°C° 0 mm 4 mps 744 mmHg 87%
    16:00 -1°C° 0 mm 3 mps 744 mmHg 87%
    17:00 -1°C° 0 mm 2 mps 744 mmHg 88%
    18:00 -2°C° 0 mm 3 mps 743 mmHg 89%
    19:00 -2°C° 0 mm 3 mps 742 mmHg 90%
    20:00 -4°C° 0 mm 3 mps 742 mmHg 91%
    21:00 -2°C° 0 mm 3 mps 741 mmHg 90%
    22:00 -3°C° 0 mm 4 mps 740 mmHg 90%
    23:00 -3°C° 0 mm 4 mps 739 mmHg 89%
    Show more